Location: Guadanolo
(41.9167°N, 12.9333°E)
Time: 13:57:34
(UTC+00:00)

ARGOS - Pass Details

Date: 16 September 2019
Orbit: 821 x 834 km, 98.5° (Epoch: 16 October)

Event Time Altitude Azimuth Distance (km) Brightness Sun altitude
Exits shadow 19:49:52 29° 211° (SSW) 1,458 4.4 -27.7°
Maximum altitude 19:52:03 44° 262° (W) 1,134 4.1 -28.1°
Drops below altitude 10° 19:57:11 10° 333° (NNW) 2,434 6.3 -28.9°
Sets 19:59:40 0° 340° (NNW) 3,373 7.1 -29.2°
